User: anonymous   Login
Location: Vancouver
(49.2500°N, 123.1330°W)
Time: 21:26:22
(UTC-07:00)
Language:

YAOGAN 6 - Orbit

View from above orbital plane
View from above orbital plane
View from above satellite
View from above satellite

Ground track
Ground track

The orbit data is extracted from the following two-line orbital elements,

1 34839U 09021A   16237.75581087  .00000728  00000-0  31681-4 0  9999
2 34839  97.1897 294.8059 0027653 293.2723  66.5605 15.25026458407409
Epoch (UTC): 24 August 2016 18:08:22
Eccentricity: 0.0027653
inclination: 97.1897°
perigee height: 472 km
apogee height: 510 km
right ascension of ascending node: 294.8059°
argument of perigee: 293.2723°
revolutions per day: 15.25026458
mean anomaly at epoch: 66.5605°
orbit number at epoch: 40740

The dashed part of the orbit path shows where the satellite is in the earth's shadow,  

DLR